Wind_Speed
59 55 52 53 54 55 52 44 40 44 47 50 56 54 50 48 43 39 36 34 40 43 43 42 39 36 36 37 39 39 40 41 41 44 44 47 49 46 44 41 37 35 32 31 28 26 24 22 20 18 17 16 16 15 18 21 22 22 20 17 14 15 15 12 11 9 10 12 12 12 11 9 8 7 7 7 6 5 6 6 6 7 7 8 9 9 9 9
59 58 54 52 53 56 55 50 41 40 46 49 55 57 53 51 43 39 37 35 40 43 42 42 39 37 36 37 38 37 37 36 38 41 41 46 52 49 45 41 37 35 32 30 28 26 24 22 20 18 17 16 16 15 17 19 21 22 23 21 16 16 17 14 13 11 10 12 12 12 11 11 10 10 9 8 7 7 7 7 8 8 7 7 8 10 10 9
56 60 58 54 53 55 56 53 46 39 44 47 52 56 56 53 46 42 38 34 40 42 40 41 40 38 37 36 37 36 34 33 36 36 36 44 49 48 46 42 39 35 32 30 27 25 22 21 20 19 18 18 17 16 16 17 19 20 23 24 21 18 17 15 14 13 11 12 13 12 11 12 12 12 11 9 9 9 7 7 8 7 7 8 8 9 10 10
52 58 61 59 54 54 55 55 51 43 42 46 49 53 56 56 48 44 38 32 38 38 36 39 40 39 37 37 36 35 33 34 35 29 32 44 45 45 45 41 39 35 32 30 27 24 22 20 20 19 19 19 17 17 17 17 18 19 21 25 25 20 17 17 16 14 13 13 14 13 12 12 13 13 12 10 10 8 6 7 8 8 9 11 10 10 11 11
47 54 59 62 57 54 55 54 54 50 43 43 46 48 54 58 51 45 39 33 36 37 35 39 41 40 38 38 37 36 34 34 34 27 28 38 41 43 44 40 37 35 31 29 27 24 22 21 20 20 20 19 18 18 18 18 18 19 20 23 25 23 20 18 17 16 15 14 15 15 14 14 14 14 13 12 10 8 8 10 10 11 13 13 12 12 13 14
42 48 55 60 58 54 55 54 53 53 48 43 44 45 49 57 53 45 41 37 35 35 36 39 41 41 39 39 39 39 37 33 32 30 27 29 37 41 41 40 36 33 30 28 26 24 22 21 21 20 20 20 19 19 19 18 18 20 20 21 24 25 23 21 18 18 17 16 16 17 17 16 16 15 15 14 9 9 12 13 13 13 14 15 14 14 14 14
38 43 50 55 58 56 54 55 53 53 52 46 43 43 45 53 54 47 44 41 37 34 35 39 42 41 41 41 41 42 41 35 30 32 30 26 33 38 37 37 34 31 29 27 26 24 23 22 22 21 20 21 21 21 20 19 18 20 22 22 24 26 26 25 22 19 19 18 17 18 19 18 18 17 18 15 10 11 14 15 16 16 16 16 15 14 14 14
36 39 46 51 56 59 56 55 54 52 54 50 44 43 44 48 53 51 46 43 40 36 32 35 41 41 42 43 43 45 44 40 32 30 34 33 32 33 33 32 30 29 27 26 25 23 23 23 23 22 21 22 22 22 21 20 20 20 23 23 24 26 26 26 25 22 20 20 20 20 21 21 21 21 20 14 11 14 15 16 18 17 18 17 16 15 15 15
36 36 41 48 54 59 59 56 53 51 52 53 48 43 43 45 49 51 47 44 42 38 32 33 40 40 42 43 43 46 45 41 34 29 33 37 36 32 31 29 28 28 27 26 25 24 24 24 24 24 23 23 22 22 21 20 21 21 22 23 23 24 25 26 26 25 23 21 22 21 21 23 24 24 23 17 14 16 15 16 18 18 19 18 17 17 17 17
35 35 38 44 51 56 59 56 52 50 49 52 51 46 43 42 45 49 49 45 41 40 37 35 40 40 41 43 43 47 44 38 38 34 32 35 38 36 33 31 28 28 28 27 27 26 26 25 25 25 24 24 24 23 22 22 22 20 20 21 22 22 23 25 26 26 25 24 23 23 23 25 26 27 26 19 17 18 16 17 18 18 19 18 19 18 18 18
36 35 36 40 46 51 56 57 50 47 48 50 50 48 46 43 42 47 50 46 40 40 40 38 40 42 42 44 45 48 42 37 38 36 32 32 36 37 33 32 31 29 29 28 28 28 28 27 27 26 25 26 26 23 23 23 23 20 18 21 23 22 21 22 24 26 27 27 25 25 26 26 28 31 27 20 18 19 18 18 17 18 19 19 20 19 19 19
36 35 36 37 42 47 52 56 52 45 47 49 49 49 48 46 42 45 48 46 40 39 41 40 40 43 43 43 46 46 40 36 37 36 35 31 32 35 33 32 32 30 30 28 28 29 28 29 28 28 27 27 26 23 23 23 23 21 20 22 23 22 21 20 20 23 26 29 27 26 28 30 31 31 26 20 20 21 20 19 18 18 19 20 21 20 20 20
35 35 36 36 39 44 48 53 54 47 46 50 50 50 50 48 43 43 46 46 42 39 41 42 42 43 43 45 46 45 41 36 35 36 37 34 31 32 33 33 32 30 30 28 27 27 28 29 28 29 29 27 25 22 21 22 23 23 23 23 23 22 23 21 18 20 23 28 29 27 27 30 31 29 26 22 22 22 21 21 19 19 20 20 21 21 21 21
35 35 35 36 37 41 45 50 53 48 46 50 52 51 51 51 46 42 43 45 43 37 39 43 44 43 44 46 46 45 42 38 36 37 37 37 34 32 33 33 32 31 30 29 28 28 28 29 29 29 29 27 26 24 22 20 22 25 25 24 25 24 24 23 19 19 20 24 28 28 30 35 33 27 27 26 24 24 23 21 21 21 21 21 22 22 22 22
34 35 35 35 35 38 42 47 50 48 44 49 53 52 52 53 49 43 42 45 44 39 37 42 45 45 45 47 47 45 44 41 39 39 37 37 35 33 33 32 32 31 30 30 31 30 30 30 30 30 29 28 26 25 24 21 21 24 23 22 25 27 27 25 20 20 19 20 25 27 30 36 34 27 27 28 27 27 26 24 22 22 22 22 23 23 23 23
34 34 34 34 34 36 39 44 48 48 44 46 51 53 54 55 52 46 43 43 44 41 39 44 46 45 45 49 51 49 47 46 43 42 39 37 35 33 31 31 32 32 31 31 31 31 31 31 31 30 29 28 28 27 26 24 23 23 22 20 25 29 28 26 22 22 22 20 22 26 29 33 33 29 28 29 30 30 29 28 25 24 23 23 24 25 24 24
34 34 34 33 34 35 37 41 45 47 45 43 47 53 55 56 53 48 44 41 40 41 41 45 47 43 42 47 54 55 51 49 47 44 42 39 36 33 32 32 32 32 31 31 31 31 31 31 31 30 29 29 30 29 25 25 25 23 23 23 25 28 27 26 25 23 23 22 22 26 32 36 36 32 28 28 31 33 32 31 30 28 26 25 25 26 25 25
34 34 34 33 34 34 36 38 41 45 45 43 43 49 55 56 54 50 48 40 34 41 44 44 47 43 42 47 53 58 55 52 50 47 45 41 37 34 31 31 30 31 32 32 33 32 32 32 30 29 31 31 30 30 27 26 30 29 28 29 28 29 27 25 25 23 21 22 22 25 30 35 37 35 32 30 31 34 35 35 34 33 31 29 28 27 27 27
33 34 34 33 33 34 35 36 38 42 44 44 40 43 52 55 55 52 51 43 35 47 53 47 52 50 45 48 50 54 55 53 51 48 47 45 40 36 33 31 29 30 33 34 34 35 34 32 32 32 34 35 34 34 31 28 31 33 31 31 30 29 29 27 25 25 23 22 23 25 29 32 35 36 35 34 34 35 37 38 38 36 35 33 31 30 29 28
32 33 33 33 33 33 35 35 36 39 41 43 39 40 49 55 56 52 54 49 37 49 56 49 57 57 48 49 48 51 55 53 52 49 49 47 42 39 36 33 32 31 34 35 34 34 33 33 37 38 37 37 35 34 33 29 29 31 30 30 30 30 30 29 27 27 26 25 27 27 29 33 34 34 35 36 38 39 39 40 40 39 37 35 34 32 31 30
32 33 33 33 33 33 34 34 35 37 38 41 39 40 48 55 59 55 57 54 37 45 55 45 51 57 52 50 48 52 58 55 52 49 48 47 42 40 39 37 37 36 35 35 34 32 32 36 39 39 36 33 31 31 32 31 29 29 28 28 30 31 31 30 29 28 27 27 30 31 32 35 36 34 33 35 39 42 42 42 41 40 39 38 36 34 33 32
32 33 33 32 33 32 33 34 34 35 37 39 39 40 45 53 61 59 57 53 38 43 54 44 45 51 51 51 48 49 58 59 54 51 49 48 45 42 41 41 40 38 36 35 35 33 34 38 38 35 31 28 27 28 28 28 29 28 28 29 29 31 30 28 29 29 27 27 30 33 34 37 38 37 36 35 38 39 40 43 43 41 41 40 39 36 34 33
32 32 32 32 33 32 32 33 33 35 36 38 41 43 44 47 58 61 55 49 37 38 51 50 49 53 53 55 51 47 55 61 59 56 52 51 49 45 42 43 41 38 37 37 38 38 38 38 38 33 28 26 26 27 28 28 29 30 31 30 29 30 27 22 24 27 24 24 27 30 35 39 39 39 38 36 36 37 38 41 43 43 43 42 40 39 37 35
33 32 32 32 32 32 33 32 33 35 36 39 41 44 43 42 51 58 54 48 36 30 42 50 52 57 57 54 52 50 52 57 59 58 56 54 52 48 43 43 42 39 39 38 37 39 39 36 34 31 27 27 28 29 31 31 31 32 32 32 31 31 28 23 23 25 23 24 27 28 32 38 41 40 40 36 34 36 37 38 41 44 44 44 42 41 39 37
34 34 33 33 33 33 33 33 34 35 35 39 42 43 40 38 45 53 53 47 38 30 37 49 53 56 56 53 52 50 50 54 56 57 57 56 53 51 46 42 42 42 40 39 36 36 38 33 28 29 30 29 30 31 32 32 32 31 31 32 30 27 26 26 25 25 21 18 23 23 19 22 31 36 38 38 37 36 36 38 40 41 43 44 45 43 41 39
34 35 35 35 34 34 33 35 35 33 36 40 42 40 38 38 39 48 52 42 38 39 38 47 55 54 56 57 53 48 46 50 54 54 55 54 53 52 49 44 43 43 41 38 35 34 37 34 27 28 32 31 31 32 32 31 29 29 30 29 27 26 25 24 24 21 15 12 15 16 10 13 27 36 35 34 36 34 34 36 37 38 39 42 45 45 42 41
34 34 35 36 35 34 34 35 33 34 38 39 39 36 36 40 37 44 46 27 30 46 41 39 52 54 57 61 58 51 45 47 52 52 54 54 52 50 48 47 45 43 41 38 35 35 37 37 31 29 32 33 35 35 34 32 28 27 30 28 24 24 22 21 21 19 18 19 20 20 18 20 29 39 38 34 35 34 33 34 34 34 34 37 41 44 44 44
35 33 34 35 35 35 34 33 33 35 37 37 36 33 35 40 38 41 37 11 13 36 39 38 45 49 55 59 59 57 50 49 52 52 53 54 53 52 49 50 49 44 42 41 37 35 37 37 35 33 32 34 37 37 34 32 29 26 27 25 20 18 17 16 16 17 18 20 20 19 19 18 21 33 38 35 35 35 33 32 31 30 30 30 32 36 41 44
37 35 35 35 35 35 33 33 34 34 35 37 35 33 36 39 38 39 30 10 9 21 28 37 43 45 52 55 55 58 54 48 49 52 54 54 54 55 52 49 49 45 42 42 38 33 33 34 33 32 32 34 36 36 34 32 31 29 24 21 18 15 14 12 13 16 16 17 17 18 18 15 17 27 36 38 35 34 32 30 28 26 26 27 28 29 32 38
39 37 35 35 36 35 34 35 34 33 34 36 34 35 37 37 39 33 17 12 19 18 20 35 46 49 51 54 55 57 57 49 46 50 53 54 54 55 54 49 47 45 42 41 37 33 32 30 30 33 35 36 34 32 32 31 30 29 24 21 17 14 12 11 13 12 11 12 14 18 20 17 13 13 22 34 36 32 28 24 22 20 20 23 25 26 27 31
40 38 36 37 36 35 36 35 34 34 34 35 35 36 37 38 41 27 8 15 24 20 23 36 48 54 52 54 56 53 56 53 48 52 55 56 55 54 53 47 42 41 40 41 39 36 34 30 32 37 38 37 32 28 27 29 30 27 25 24 16 10 8 8 8 8 8 7 6 12 17 16 15 8 7 21 26 23 24 24 24 24 22 20 20 23 26 27
41 39 37 38 38 37 38 35 33 32 32 36 35 37 40 35 34 28 15 20 21 19 31 38 44 56 55 54 57 55 56 55 51 54 59 59 58 58 57 53 50 43 38 43 42 36 35 35 36 37 38 38 33 29 27 26 28 26 25 25 17 6 5 6 4 5 9 8 3 6 7 13 29 30 25 29 29 28 31 29 25 22 19 17 15 18 23 26
42 41 39 40 40 40 39 35 34 30 31 38 37 40 44 29 23 33 31 26 17 13 30 41 43 54 58 55 56 56 54 54 52 53 58 62 61 58 56 57 58 50 44 48 43 32 25 27 35 37 36 39 37 34 34 30 30 30 28 29 22 8 4 9 7 3 7 9 6 7 7 14 29 31 25 25 24 22 19 14 11 9 7 9 12 14 18 24
42 42 43 43 42 42 41 37 36 31 32 39 41 43 43 26 20 39 45 36 26 19 29 44 47 51 59 58 57 59 55 50 53 54 57 61 58 54 52 54 57 52 47 47 44 38 26 18 33 42 36 37 39 37 37 35 33 32 30 31 27 16 7 7 8 5 3 4 8 10 8 11 15 12 7 4 4 4 3 6 9 8 5 6 10 13 15 21
42 44 46 45 46 45 43 40 37 35 36 41 45 47 43 31 30 46 51 43 37 33 34 44 49 51 56 56 56 62 60 53 54 57 59 62 60 57 58 58 58 54 48 44 41 41 33 20 29 42 38 34 37 39 36 34 30 28 28 29 28 23 14 5 5 7 4 2 7 12 15 19 19 19 15 12 12 11 13 18 15 11 9 8 11 16 17 20
40 44 46 48 50 47 43 43 41 40 40 40 47 54 49 43 43 46 49 48 45 40 38 44 52 55 53 48 52 60 59 57 58 58 59 63 63 63 63 62 62 59 55 51 44 38 30 20 22 33 35 28 30 37 37 32 28 27 29 32 30 27 21 10 3 5 5 5 8 11 20 29 28 29 30 28 24 15 15 21 16 10 10 9 11 15 17 20
41 42 46 51 52 48 44 44 44 42 42 43 51 57 53 53 53 47 47 55 57 49 41 44 51 56 52 43 47 55 54 54 59 59 59 59 58 61 63 60 61 61 58 56 50 43 35 22 18 29 35 29 26 31 35 33 31 30 32 36 33 25 23 17 5 2 4 5 7 10 20 25 19 20 23 18 14 6 6 10 10 8 9 9 8 9 12 15
41 42 50 56 54 50 46 45 47 44 42 48 56 58 56 58 59 53 48 53 63 60 47 41 46 53 55 50 48 52 53 53 55 56 57 56 51 58 65 60 59 61 59 54 48 46 41 22 16 28 33 27 27 28 32 35 35 33 32 34 31 19 17 20 10 3 5 5 5 8 16 23 24 26 23 15 15 12 12 10 10 9 11 10 8 9 10 11
38 41 53 60 54 51 49 46 46 45 45 54 60 59 61 61 61 60 55 50 59 66 55 42 41 47 56 59 57 57 55 55 59 54 53 55 50 57 67 63 60 61 60 57 49 45 42 23 14 27 31 26 29 32 35 39 37 32 27 29 31 20 13 20 18 9 5 5 6 4 6 16 28 32 26 20 17 11 5 8 14 14 14 13 11 12 13 12
35 40 56 62 55 51 49 45 47 49 51 58 61 61 61 62 62 64 62 54 54 64 65 52 40 40 52 59 62 66 60 57 66 61 55 59 53 53 66 65 61 63 61 58 50 42 41 32 22 29 32 29 33 39 42 43 41 37 31 30 34 28 16 16 22 19 9 2 3 4 4 13 23 21 15 14 16 10 1 4 15 18 17 17 15 13 13 13
33 40 61 65 55 51 47 45 50 53 55 57 61 66 65 63 65 65 64 59 53 56 65 62 47 39 47 55 61 68 63 57 66 64 56 62 58 53 64 69 64 65 62 57 52 43 40 38 32 35 38 34 35 40 41 40 41 41 38 36 38 37 28 16 14 22 19 7 4 3 6 20 29 22 15 16 17 15 11 7 14 18 18 19 17 14 12 12
31 46 69 66 52 49 46 47 52 53 58 62 66 71 67 62 67 69 66 62 56 52 56 62 61 50 48 57 62 65 62 60 67 66 56 62 69 63 65 72 66 63 64 59 53 48 40 36 35 38 40 37 32 34 36 34 36 39 40 39 37 37 35 19 8 16 22 16 12 5 6 23 33 23 14 15 12 11 12 13 13 15 18 19 17 15 14 13
40 59 74 61 47 47 45 49 55 57 62 66 68 72 68 63 67 71 69 65 60 58 54 55 61 59 55 59 62 62 60 58 64 70 61 59 70 67 61 69 68 60 62 60 52 48 39 33 35 34 32 33 28 28 33 33 35 40 43 42 38 38 36 22 10 14 18 20 20 8 6 25 33 20 12 13 9 6 11 16 15 13 16 17 17 17 16 15
47 61 70 60 49 49 51 54 60 65 68 68 68 70 68 65 68 72 71 68 64 61 58 52 53 59 61 60 63 64 61 53 53 62 59 52 61 63 56 63 70 64 62 62 58 53 40 35 38 29 14 14 16 14 25 36 41 44 44 41 38 38 37 28 19 16 16 25 30 18 9 23 26 17 15 16 12 11 14 19 20 15 15 18 19 18 17 15
44 54 64 63 55 55 59 63 65 72 74 72 71 70 65 61 65 72 73 71 67 63 60 55 52 56 61 61 61 64 63 58 54 58 57 50 54 60 55 57 66 67 63 60 58 54 42 38 45 36 20 16 17 17 31 49 50 44 43 41 38 36 37 35 28 21 19 26 34 30 21 23 22 14 12 14 13 10 10 14 18 19 20 21 19 17 17 16
42 50 59 62 60 61 64 66 70 77 77 72 69 68 68 62 59 67 72 72 71 67 59 56 55 57 60 62 60 59 59 56 55 59 59 52 52 57 56 56 61 64 61 56 52 48 40 38 43 44 40 38 35 30 37 49 50 45 44 44 42 38 39 39 33 29 28 22 27 40 40 33 30 19 13 19 17 8 7 11 15 20 21 19 18 18 18 18
43 50 57 56 54 58 65 68 74 79 79 76 69 64 68 67 61 62 66 69 72 69 60 53 55 57 59 62 61 58 57 51 51 57 57 52 52 53 51 51 54 59 58 53 51 46 40 38 38 40 41 39 37 31 30 35 41 44 44 44 44 40 40 44 42 45 43 26 24 45 47 40 41 31 21 19 14 9 10 10 12 16 18 19 19 20 21 21
45 52 57 53 47 54 67 74 77 78 78 79 73 67 69 69 66 63 63 65 69 70 63 53 52 57 60 63 63 58 56 49 45 51 54 51 51 50 45 40 44 55 56 50 49 47 40 39 40 39 36 35 35 33 30 29 31 36 38 39 42 43 44 49 50 51 49 39 37 44 39 38 44 39 31 25 19 14 11 11 15 18 20 22 23 24 25 24
48 52 55 53 50 56 71 76 74 74 78 77 70 69 74 72 68 65 65 65 66 69 67 56 50 54 58 64 66 63 62 57 49 52 58 56 52 49 47 42 41 49 53 49 47 45 41 40 40 40 39 37 34 32 32 29 27 31 37 38 39 41 45 49 49 49 51 49 48 43 34 34 37 34 32 29 23 22 21 19 20 21 22 24 25 26 24 23
50 51 52 51 48 54 72 78 74 71 74 73 67 67 74 76 71 66 65 67 67 67 68 62 55 57 59 62 66 67 70 70 66 66 69 65 59 55 55 55 52 50 52 53 51 47 44 39 40 44 40 33 31 29 27 26 25 28 33 36 40 45 49 51 50 51 54 53 51 46 42 44 43 35 31 31 29 28 25 21 19 17 18 20 21 23 22 21
48 48 50 48 43 51 71 78 78 75 72 72 69 66 70 74 75 70 64 66 69 68 69 65 58 58 60 62 67 68 69 72 73 73 74 70 67 66 63 61 60 56 54 56 54 52 49 38 36 42 35 26 29 27 22 22 20 20 28 37 46 52 54 55 51 49 52 52 51 50 49 50 47 38 35 36 32 26 22 18 14 13 15 18 19 19 20 21
46 48 50 47 43 54 71 75 77 76 73 75 74 71 71 73 76 74 65 60 64 67 70 70 63 57 59 63 67 65 62 65 68 68 67 64 63 66 63 57 57 56 57 58 54 52 53 44 36 38 31 23 24 22 20 19 13 17 38 50 52 53 51 51 51 50 50 48 48 49 47 45 42 38 36 34 27 22 19 16 15 17 19 19 20 20 20 21
Wind_Direction
219 224 225 225 226 225 222 216 209 208 206 202 200 199 199 196 199 202 197 204 213 210 209 209 209 211 212 212 213 213 215 219 222 224 229 226 216 212 210 209 211 210 207 204 204 208 212 214 213 214 216 218 222 226 222 220 224 225 227 231 236 236 234 231 226 225 227 223 220 221 222 216 206 203 208 212 208 207 209 201 196 196 185 171 164 166 171 179
217 220 225 226 225 225 225 220 211 208 208 204 202 204 201 197 198 198 198 202 206 207 208 208 209 210 212 212 213 213 215 220 223 227 231 220 209 207 207 204 206 208 208 207 205 207 209 211 213 215 216 217 220 223 222 219 222 225 227 229 233 237 236 234 229 228 229 224 222 225 229 227 219 211 211 212 210 212 209 201 202 205 205 197 175 172 177 178
217 217 221 227 227 224 225 223 217 210 209 207 204 206 204 199 198 197 202 204 200 203 206 208 209 210 211 210 212 214 216 221 223 226 223 212 206 204 204 202 202 205 207 207 205 204 207 210 213 216 217 219 218 219 221 221 223 228 229 227 229 234 237 236 232 229 227 224 222 224 226 226 226 222 219 215 215 216 208 207 210 210 219 220 201 184 182 180
217 216 217 224 229 225 224 224 221 215 209 208 206 207 205 201 201 200 203 202 197 201 205 208 210 210 210 209 211 213 216 221 222 223 215 208 205 204 205 201 199 203 206 205 203 202 205 210 214 217 219 220 218 217 221 223 225 231 231 228 229 231 236 236 231 229 228 226 222 223 224 223 227 228 227 225 221 211 198 208 210 208 214 214 209 196 187 185
217 216 215 220 228 228 224 223 223 220 212 207 207 209 206 204 205 204 203 198 196 201 205 209 210 210 210 208 209 210 214 220 219 216 213 208 203 205 206 201 197 201 203 204 203 203 207 211 215 219 221 223 221 219 223 225 226 232 234 232 230 229 233 235 232 229 228 228 223 222 224 224 228 228 228 229 221 199 192 204 204 205 212 209 207 200 192 188
218 216 215 217 225 229 226 222 221 222 217 207 206 210 209 207 209 208 203 196 197 203 205 208 209 210 211 209 208 210 211 215 215 208 208 206 201 203 202 196 194 197 201 205 205 206 210 215 219 222 225 228 229 227 228 229 231 234 237 236 232 230 231 233 234 230 228 230 226 223 225 227 231 231 230 229 215 197 202 206 203 203 211 212 208 203 199 196
219 216 216 216 221 227 228 223 220 221 220 211 204 208 210 208 210 211 206 201 204 207 204 204 207 209 211 209 208 211 211 212 212 205 203 201 197 199 197 193 192 195 201 207 209 210 214 219 223 227 230 234 236 235 234 234 234 236 239 237 234 233 232 233 235 233 230 231 230 226 225 229 233 233 233 228 212 206 207 209 208 205 210 212 210 208 206 204
220 217 215 214 217 223 227 226 221 218 219 216 208 206 208 209 209 211 211 209 211 211 204 200 204 208 212 211 210 213 211 209 211 204 204 205 201 200 199 196 193 197 205 210 215 217 221 225 228 232 234 237 240 240 239 238 238 239 241 239 235 234 234 235 237 236 232 231 234 231 228 232 234 234 233 225 214 215 211 213 214 209 211 212 210 213 211 210
220 219 216 213 214 218 224 227 224 218 216 217 213 208 206 209 210 210 213 213 213 214 210 201 202 208 213 214 213 217 214 209 211 207 206 208 207 207 206 204 201 203 208 213 220 222 226 230 233 236 238 240 242 241 240 238 239 241 243 241 236 236 237 239 239 239 237 233 235 235 232 233 234 236 234 224 219 221 217 218 220 216 215 214 212 215 215 214
219 219 217 215 213 215 220 226 229 220 215 215 216 213 206 207 209 208 211 213 213 214 213 207 205 208 214 215 214 219 216 210 212 210 207 207 207 209 208 208 208 210 214 218 223 227 231 233 235 238 239 241 241 241 239 235 237 240 240 236 233 236 240 242 242 241 241 237 237 239 237 235 235 238 234 224 223 226 223 223 225 223 221 218 216 217 218 218
218 218 218 217 215 216 218 224 229 223 216 214 214 215 208 205 207 207 208 211 211 213 215 213 210 211 215 218 218 220 215 209 212 211 208 206 205 208 209 209 211 214 218 222 225 229 233 234 236 237 237 239 240 240 240 235 235 235 233 230 230 237 242 243 244 244 244 241 239 241 241 236 233 235 232 225 225 228 228 227 226 226 225 223 221 221 221 221
219 218 218 218 217 217 217 221 227 225 218 214 213 213 211 206 206 206 205 208 211 212 214 215 214 215 217 219 222 222 216 209 212 211 210 208 203 206 208 210 213 215 218 221 225 228 231 233 235 235 234 236 236 236 237 234 231 228 227 228 230 237 240 240 243 245 245 245 243 244 247 242 234 234 233 228 228 229 229 229 229 229 229 228 226 225 224 224
220 219 218 218 217 217 217 219 224 226 220 216 213 212 213 209 205 206 204 205 211 212 214 216 216 218 220 222 223 221 217 212 211 210 210 209 205 203 205 208 211 212 214 216 220 224 228 231 232 232 232 232 232 231 233 231 229 226 225 228 231 238 242 239 239 243 245 245 244 245 251 248 237 234 236 231 229 231 230 230 231 232 232 232 231 228 227 227
220 220 219 218 216 215 217 218 222 226 221 217 215 211 213 213 206 206 207 207 210 210 212 215 217 220 223 225 225 222 217 212 211 210 209 209 206 203 202 204 206 208 210 211 213 217 222 226 228 230 230 229 228 228 228 227 227 227 227 231 233 238 244 240 237 243 247 249 244 241 247 248 240 234 235 232 230 232 232 231 232 234 235 234 234 232 230 229
219 220 219 219 217 214 215 216 219 223 221 217 216 212 212 214 210 203 206 209 210 209 209 213 217 221 224 225 226 224 218 211 210 208 207 208 207 204 202 201 203 205 207 209 210 212 215 219 222 224 225 224 224 224 222 220 223 224 224 230 232 234 242 243 241 243 249 255 247 237 243 249 243 234 233 231 231 233 233 234 233 235 237 237 237 236 233 231
217 218 219 218 218 215 213 214 217 221 221 216 215 213 211 213 210 202 202 208 211 213 210 211 216 217 219 221 222 222 217 211 209 206 205 206 205 204 202 201 202 202 204 207 210 211 212 214 217 220 222 220 219 218 217 217 220 220 218 226 231 233 240 245 246 246 248 256 251 239 239 247 245 237 233 230 231 234 234 235 236 236 238 240 240 240 238 234
215 217 218 217 217 216 213 213 214 218 220 217 215 213 211 212 210 204 200 201 210 218 214 214 217 215 214 217 218 218 216 210 207 205 203 203 201 199 199 200 200 201 203 205 208 210 211 212 214 216 218 217 216 215 212 212 214 214 217 225 233 235 239 244 247 250 251 253 253 246 240 243 244 241 237 232 231 234 235 237 238 238 239 241 242 242 241 238
214 215 216 216 215 216 214 212 213 215 218 219 216 213 211 211 210 205 197 195 210 219 214 215 216 209 208 213 215 216 214 208 205 203 201 200 197 192 192 195 197 199 201 204 207 209 209 211 212 213 214 213 212 210 209 213 216 216 218 223 230 235 239 242 246 250 253 253 251 249 247 245 246 245 242 237 233 232 233 236 238 239 239 241 243 244 244 242
214 214 215 215 214 214 214 212 212 213 216 218 216 212 211 210 209 206 196 194 208 210 203 207 211 208 209 213 214 214 210 205 202 200 200 200 195 190 187 189 193 198 201 203 205 208 209 208 208 211 213 213 212 213 215 221 224 222 222 226 231 238 243 246 249 251 254 256 254 251 252 251 248 247 246 242 239 235 233 234 236 238 239 240 242 245 247 246
213 213 214 214 213 213 213 213 212 212 214 217 215 209 209 209 209 207 197 195 211 213 207 209 213 214 216 215 212 208 204 200 199 197 199 200 197 192 189 188 191 197 204 207 207 208 209 208 212 215 216 219 221 220 219 221 224 223 225 229 235 242 248 250 252 253 254 258 259 255 255 253 250 249 249 247 244 240 236 234 235 237 238 240 241 243 246 248
212 212 213 214 214 213 213 213 212 212 213 216 214 208 208 209 209 206 197 197 211 215 211 213 214 217 219 216 213 206 199 196 196 197 197 197 196 195 192 190 192 196 203 209 210 209 208 212 219 221 222 225 225 222 220 222 224 225 227 230 235 240 245 250 253 255 256 259 261 259 257 253 249 248 248 250 249 245 241 238 236 236 238 239 239 240 243 246
212 211 212 214 214 214 214 214 212 212 213 215 214 211 211 210 209 208 202 204 215 213 210 211 213 219 221 216 216 211 200 194 193 195 196 195 195 196 195 194 195 196 198 203 205 204 207 215 221 223 224 225 223 222 221 223 225 227 228 229 232 235 239 247 253 256 259 263 264 263 262 255 248 248 248 249 251 250 246 242 239 237 238 239 238 238 239 241
212 211 211 213 214 214 215 215 213 212 213 214 214 215 214 211 210 210 208 211 219 217 214 215 213 219 221 215 213 212 204 197 192 193 196 198 197 197 198 198 196 197 198 201 201 200 204 212 219 221 221 221 220 217 216 219 222 225 226 226 227 231 232 241 254 259 262 267 267 268 270 262 249 248 250 249 252 254 252 247 242 239 237 238 239 237 237 237
212 211 211 211 212 213 214 214 214 213 213 214 215 216 214 211 211 211 211 215 223 225 222 223 220 220 223 218 213 209 205 201 198 196 195 197 198 196 199 202 199 199 201 203 204 205 207 212 217 218 215 217 217 213 212 214 218 222 224 223 226 231 231 238 253 262 270 276 274 275 280 272 257 250 251 251 252 254 254 252 247 243 239 238 238 238 237 236
214 213 212 211 211 212 213 215 215 213 214 215 214 214 210 208 211 211 212 218 229 231 220 220 220 220 222 219 213 207 204 202 202 203 199 197 198 197 197 201 201 201 202 202 204 210 214 216 215 213 210 211 214 214 212 213 216 221 225 225 229 234 236 242 252 265 276 280 279 280 284 276 261 253 252 253 254 254 255 255 251 247 243 240 238 238 238 237
214 215 214 213 212 211 213 215 215 214 216 215 214 212 207 205 208 210 212 222 238 235 219 211 211 214 215 211 210 205 200 201 201 204 204 200 201 200 195 196 201 204 203 198 201 210 216 217 214 212 211 208 211 216 217 216 216 223 229 227 230 234 239 247 253 265 272 266 276 276 269 280 272 260 253 253 256 256 255 256 255 251 248 244 241 239 238 239
216 216 215 216 213 213 214 216 217 216 216 215 213 212 207 204 206 208 212 227 243 233 226 212 204 209 212 208 211 208 198 198 197 201 205 200 199 201 198 197 199 202 201 195 197 209 214 213 211 210 210 208 211 215 216 216 216 224 230 228 230 238 244 253 259 265 268 269 276 272 266 281 278 265 257 256 258 259 257 256 257 256 254 251 248 245 242 241
218 217 218 217 215 215 215 217 219 217 217 216 213 212 206 205 205 205 209 229 238 224 226 219 205 205 208 207 212 213 207 202 196 196 202 201 197 198 201 205 204 201 199 197 198 208 213 211 211 209 206 210 216 218 217 213 214 222 228 228 231 241 247 254 263 264 269 277 275 268 267 273 276 269 265 265 263 258 257 258 259 262 261 259 256 252 248 243
220 220 219 218 218 218 216 220 219 214 216 216 212 208 205 205 203 204 211 226 214 213 215 212 205 198 197 200 204 209 210 205 199 197 198 200 197 196 199 206 209 204 199 201 204 208 212 213 216 215 212 215 218 220 220 215 218 224 228 231 234 242 247 247 255 258 265 274 265 259 261 266 278 275 268 270 268 260 261 266 266 267 265 262 258 256 252 246
223 222 220 219 220 219 220 222 216 211 216 216 208 204 204 203 200 201 214 220 213 214 197 195 201 196 188 188 192 201 206 204 203 200 195 196 196 196 199 202 205 204 200 202 206 211 214 213 214 216 219 223 222 221 220 220 225 228 228 229 231 237 238 234 243 249 260 267 257 254 255 256 274 283 270 268 267 265 270 276 276 272 269 265 260 256 253 248
224 223 221 220 219 221 223 220 212 212 217 214 206 202 203 202 201 202 210 209 214 220 197 186 194 196 189 185 186 192 201 203 204 200 193 190 190 192 195 193 192 195 196 198 204 212 216 214 213 214 218 222 222 220 218 219 223 225 225 220 211 208 208 219 235 226 237 253 244 250 252 243 241 241 256 258 260 271 280 282 281 277 274 271 264 256 250 246
224 224 222 220 220 221 219 215 215 218 217 212 206 202 201 199 204 209 203 203 212 216 204 193 188 192 190 188 189 188 193 197 198 199 194 189 187 190 193 191 186 181 184 195 200 206 211 211 212 214 217 217 217 214 210 212 213 213 213 204 187 155 173 202 207 203 231 240 227 237 220 226 244 250 257 261 268 279 282 283 285 283 279 278 271 261 252 244
223 226 224 220 220 220 215 216 223 223 216 211 208 207 205 201 207 209 201 200 206 209 207 202 193 190 189 186 187 186 188 192 193 195 195 191 189 190 193 196 193 187 186 191 192 191 195 209 214 213 216 216 214 210 204 200 199 202 201 191 180 158 171 208 207 210 240 233 226 224 213 244 258 264 268 268 271 275 278 288 305 312 301 280 272 265 256 245
223 226 226 222 221 219 214 220 226 222 217 212 208 208 207 203 205 204 201 199 204 210 205 200 193 187 187 186 185 187 187 188 192 193 191 189 187 186 188 193 196 195 190 187 190 190 183 200 214 213 215 216 212 211 211 206 198 199 202 194 190 189 189 206 205 206 231 219 210 203 214 247 252 252 252 239 236 253 316 341 335 335 328 286 267 258 251 244
224 226 227 224 221 218 215 221 224 220 218 214 210 210 206 198 198 202 202 197 200 207 199 194 191 183 185 187 185 190 190 185 188 190 189 189 188 188 190 192 194 195 191 186 190 194 190 196 210 209 212 214 208 207 212 211 198 191 195 197 200 205 207 204 207 214 207 217 218 210 226 241 241 244 251 260 268 272 286 292 296 302 296 281 258 245 241 240
226 226 228 227 221 217 216 220 223 220 219 215 212 213 211 208 205 205 205 200 200 206 193 187 188 181 182 185 182 186 190 186 185 185 188 192 193 192 194 195 194 195 197 194 190 189 191 199 207 204 206 210 208 206 207 208 201 190 191 198 203 206 209 209 217 219 212 242 239 223 242 255 261 266 267 269 272 277 277 269 265 272 274 266 254 245 243 245
229 228 230 228 221 217 217 221 224 224 221 217 215 214 214 215 212 207 208 205 204 208 198 186 185 181 179 182 180 181 185 184 182 183 185 189 194 195 194 197 197 198 202 202 195 190 188 186 189 194 199 201 202 204 204 208 209 201 199 202 202 204 212 214 213 196 201 246 255 234 249 259 261 265 270 262 245 258 300 261 242 247 248 242 250 254 254 256
231 232 232 226 219 219 220 220 225 227 223 218 218 218 215 216 214 207 207 207 205 208 206 193 187 183 180 179 179 181 181 179 179 181 184 186 193 197 195 197 199 199 202 202 200 199 191 173 166 183 190 190 187 190 197 204 209 210 210 209 203 201 209 205 201 209 204 228 267 245 250 257 250 248 258 252 235 261 296 268 236 228 224 224 239 253 264 271
233 238 233 222 217 222 223 222 225 228 224 217 216 217 216 216 215 210 208 207 204 207 209 199 189 186 183 182 181 181 182 181 179 180 183 185 192 199 198 198 198 198 200 201 203 206 197 180 163 178 180 178 179 186 193 198 201 207 216 214 206 205 202 198 203 209 199 212 245 249 250 258 257 256 257 255 248 260 288 235 217 210 214 223 234 247 258 268
235 242 234 221 218 223 225 227 228 227 224 218 215 217 216 214 214 212 210 208 203 205 209 205 193 186 185 185 184 184 184 184 183 183 186 187 190 196 198 199 199 198 198 199 203 206 201 193 176 171 176 180 186 192 196 197 195 196 202 204 204 205 199 201 212 215 209 197 236 259 268 257 263 268 260 237 222 219 226 212 210 210 219 228 234 246 252 257
237 243 233 224 222 225 226 229 230 228 225 220 217 216 214 212 212 210 209 208 204 206 211 210 206 195 184 184 185 184 183 184 186 185 187 189 190 193 197 198 199 198 195 196 201 203 201 198 184 171 178 188 195 198 198 199 199 199 200 202 204 203 196 192 212 214 213 216 220 242 285 271 268 269 256 236 226 236 258 240 210 213 224 228 231 238 239 241
239 238 231 227 228 228 228 232 233 230 224 220 217 214 210 210 210 208 207 206 205 208 211 212 213 207 191 186 186 183 181 183 186 187 188 192 194 197 198 198 199 200 196 195 199 200 199 197 184 174 182 190 197 201 199 200 205 205 207 207 205 204 199 190 197 207 206 217 234 248 297 273 270 271 255 237 226 229 229 204 195 214 227 229 229 227 223 225
237 233 229 230 234 233 233 237 235 228 222 220 217 212 207 205 206 206 205 203 204 209 209 207 206 203 196 191 187 184 183 183 187 190 191 194 198 200 199 198 198 199 198 196 196 196 196 191 175 167 178 188 193 202 201 201 206 208 211 210 205 204 202 199 215 212 201 212 222 219 260 259 262 263 228 202 189 198 206 197 198 214 224 224 220 215 217 225
237 237 235 234 235 236 238 239 231 220 215 213 209 205 203 203 204 203 202 200 200 205 207 204 200 198 197 194 190 187 186 184 187 191 193 195 198 200 199 198 199 198 199 201 198 194 192 184 171 154 143 182 194 204 207 207 209 210 212 210 207 207 204 203 216 213 212 224 218 202 228 251 253 248 224 216 226 235 222 214 216 214 212 213 211 214 225 237
242 244 242 237 235 238 240 238 225 212 206 203 200 198 196 199 203 204 203 201 201 204 206 205 205 201 198 195 192 190 189 188 187 190 194 196 198 200 199 199 200 199 200 203 200 193 188 183 179 168 154 176 188 196 207 206 204 207 210 209 210 211 207 207 208 203 219 230 217 209 225 241 242 245 230 204 185 179 191 207 214 208 204 209 215 228 241 248
245 247 244 241 240 238 238 234 220 207 199 194 193 193 191 191 196 202 204 201 201 204 204 203 203 201 198 195 191 189 190 191 189 190 194 195 196 199 199 199 200 199 199 200 197 193 189 187 190 189 186 187 187 192 204 202 197 202 208 208 210 212 211 210 207 211 221 219 215 224 228 233 240 239 195 169 162 167 208 213 212 208 207 216 231 244 250 252
243 245 243 244 242 235 229 221 209 202 197 191 188 187 188 190 190 195 200 200 199 201 203 203 199 195 194 192 189 187 189 192 192 190 192 194 196 197 196 197 198 198 199 200 198 195 192 191 197 201 202 201 198 201 210 206 203 208 208 205 207 209 210 211 213 221 221 209 227 239 233 232 241 234 203 188 192 208 218 218 223 219 218 230 242 248 251 255
240 244 242 240 238 228 217 207 199 196 194 192 189 186 187 189 189 188 192 197 199 199 202 205 200 196 195 191 188 186 187 191 192 190 190 193 194 191 188 190 197 199 199 200 201 199 197 200 203 203 207 213 213 214 218 213 213 217 214 209 209 206 207 212 218 223 221 217 235 245 239 238 245 239 226 219 211 210 229 246 243 236 236 244 249 253 257 260
241 247 241 234 233 222 208 199 194 192 191 189 188 187 188 189 189 189 189 192 196 199 203 205 200 196 196 194 191 188 187 189 190 191 193 194 192 189 183 181 190 197 198 199 201 201 202 207 208 205 207 213 216 218 220 216 215 219 220 219 215 211 213 219 224 223 222 226 235 241 243 247 249 244 237 234 233 245 262 262 252 253 257 257 256 257 262 264
243 244 234 231 234 215 199 196 193 189 187 188 187 188 190 190 189 189 189 191 193 196 201 206 202 197 196 195 194 194 196 197 197 198 198 194 192 192 190 189 189 190 194 199 200 200 203 208 209 206 205 207 211 213 213 214 216 218 221 223 222 221 221 224 225 222 221 229 235 236 244 252 251 248 246 248 254 261 266 266 263 266 266 259 257 257 260 263
244 239 229 231 231 206 192 192 193 188 185 187 188 187 188 190 191 189 189 193 196 197 199 204 203 198 195 196 197 200 205 206 206 206 204 201 201 201 198 198 194 187 187 194 197 198 200 203 205 202 199 200 206 205 201 203 209 217 223 225 224 223 222 223 225 223 224 231 235 235 243 252 253 253 252 253 259 264 268 270 268 263 258 259 262 263 261 262
241 232 225 227 221 198 189 189 190 188 185 187 189 189 188 191 193 190 187 190 198 201 202 204 204 198 193 195 200 206 209 210 209 210 209 209 209 207 203 202 200 195 190 189 192 196 199 201 200 195 194 196 196 194 192 186 181 215 225 226 225 223 224 226 228 228 229 233 234 235 243 253 258 259 258 256 260 263 265 270 272 269 268 269 271 271 267 264
Height
3040 3042 3046 3049 3053 3057 3062 3066 3071 3075 3079 3083 3086 3090 3094 3098 3102 3105 3108 3112 3115 3118 3122 3125 3128 3131 3133 3135 3137 3140 3142 3143 3145 3147 3148 3153 3158 3161 3164 3167 3170 3172 3174 3176 3178 3180 3182 3184 3185 3186 3188 3189 3190 3191 3192 3193 3195 3196 3197 3198 3199 3200 3200 3201 3201 3202 3202 3202 3203 3203 3203 3204 3204 3204 3205 3205 3206 3206 3206 3207 3207 3207 3207 3207 3208 3208 3209 3210
3037 3039 3042 3044 3049 3054 3058 3063 3067 3072 3076 3080 3084 3087 3091 3095 3099 3103 3105 3108 3111 3116 3119 3123 3126 3128 3130 3132 3134 3137 3139 3141 3142 3142 3146 3151 3154 3157 3161 3165 3167 3170 3173 3175 3177 3179 3181 3183 3184 3185 3187 3188 3189 3190 3191 3192 3194 3195 3196 3197 3198 3198 3199 3200 3201 3201 3202 3202 3202 3203 3203 3204 3203 3204 3204 3205 3205 3206 3206 3206 3207 3207 3207 3207 3208 3208 3209 3210
3034 3037 3039 3040 3044 3050 3054 3059 3064 3068 3074 3077 3081 3084 3089 3093 3096 3100 3103 3104 3108 3113 3117 3121 3123 3125 3128 3130 3132 3135 3137 3138 3137 3140 3146 3149 3151 3155 3158 3161 3164 3168 3171 3174 3175 3177 3179 3181 3183 3184 3185 3186 3187 3189 3190 3191 3192 3193 3194 3195 3196 3197 3198 3199 3200 3200 3201 3201 3202 3202 3203 3203 3203 3203 3203 3204 3204 3205 3206 3206 3206 3207 3207 3207 3207 3208 3208 3209
3031 3034 3037 3037 3039 3045 3050 3055 3060 3065 3070 3075 3078 3081 3086 3090 3093 3097 3100 3103 3107 3111 3115 3118 3121 3123 3125 3128 3130 3132 3134 3134 3135 3142 3146 3146 3150 3154 3157 3159 3162 3166 3169 3172 3173 3175 3177 3179 3181 3182 3184 3185 3186 3188 3188 3189 3191 3191 3192 3193 3194 3196 3197 3198 3198 3199 3200 3200 3201 3201 3202 3202 3202 3203 3203 3203 3204 3205 3206 3206 3206 3206 3206 3206 3207 3207 3207 3208
3028 3031 3035 3036 3035 3040 3047 3051 3057 3062 3067 3072 3076 3079 3084 3087 3090 3094 3098 3102 3106 3110 3113 3115 3118 3121 3123 3126 3128 3129 3131 3132 3135 3142 3143 3145 3150 3153 3156 3158 3161 3164 3167 3170 3171 3173 3175 3177 3179 3181 3183 3183 3185 3186 3187 3188 3189 3189 3190 3191 3193 3194 3195 3196 3197 3198 3198 3199 3200 3200 3201 3201 3201 3202 3202 3203 3203 3204 3205 3204 3204 3205 3205 3205 3206 3206 3206 3207
3026 3028 3032 3034 3034 3036 3042 3048 3053 3058 3063 3069 3073 3077 3081 3085 3088 3092 3096 3100 3104 3108 3110 3113 3116 3118 3120 3123 3126 3127 3129 3130 3135 3140 3141 3144 3149 3152 3156 3157 3159 3162 3165 3168 3170 3172 3174 3176 3178 3180 3181 3182 3184 3185 3186 3187 3188 3188 3189 3190 3191 3193 3194 3195 3196 3196 3197 3198 3198 3199 3200 3200 3200 3201 3201 3202 3203 3203 3203 3203 3203 3203 3204 3204 3205 3206 3206 3206
3023 3026 3029 3032 3034 3034 3038 3045 3050 3054 3060 3065 3070 3074 3078 3082 3086 3089 3093 3097 3100 3104 3107 3110 3113 3116 3117 3119 3122 3123 3126 3129 3133 3138 3141 3144 3148 3152 3154 3155 3157 3160 3163 3166 3168 3170 3172 3174 3176 3178 3180 3181 3182 3183 3184 3186 3187 3187 3187 3188 3190 3191 3192 3193 3194 3195 3196 3196 3196 3197 3198 3198 3199 3199 3200 3201 3202 3202 3202 3202 3202 3202 3202 3203 3204 3205 3206 3206
3020 3023 3026 3029 3032 3033 3035 3039 3045 3051 3056 3062 3067 3071 3075 3080 3083 3087 3091 3094 3097 3100 3103 3106 3110 3113 3115 3115 3117 3118 3122 3127 3131 3136 3139 3143 3147 3151 3152 3153 3155 3158 3161 3165 3167 3169 3170 3172 3175 3176 3178 3179 3180 3182 3183 3185 3185 3186 3185 3186 3188 3189 3190 3191 3192 3194 3194 3195 3195 3195 3196 3197 3197 3197 3198 3200 3201 3200 3200 3200 3200 3201 3201 3202 3203 3204 3205 3205
3018 3021 3024 3026 3030 3032 3033 3035 3041 3047 3052 3058 3064 3068 3073 3077 3081 3085 3089 3092 3095 3097 3100 3104 3107 3110 3112 3114 3116 3116 3120 3127 3131 3135 3138 3141 3146 3149 3151 3153 3155 3157 3160 3163 3165 3167 3168 3170 3173 3175 3176 3177 3178 3180 3182 3183 3184 3184 3184 3185 3187 3187 3189 3190 3191 3192 3193 3194 3193 3193 3195 3195 3195 3195 3196 3199 3200 3199 3200 3200 3200 3200 3201 3201 3202 3203 3204 3204
3015 3018 3021 3024 3027 3030 3032 3033 3037 3044 3049 3055 3060 3065 3070 3074 3078 3083 3087 3090 3093 3095 3099 3102 3104 3107 3108 3111 3113 3112 3120 3129 3130 3133 3137 3140 3144 3147 3149 3151 3153 3156 3158 3161 3163 3165 3167 3169 3171 3173 3175 3175 3176 3178 3180 3181 3182 3183 3183 3184 3185 3186 3187 3188 3189 3190 3191 3192 3192 3192 3192 3192 3193 3193 3194 3198 3199 3198 3199 3199 3199 3199 3200 3201 3201 3201 3202 3203
3013 3016 3019 3022 3025 3027 3030 3032 3034 3040 3047 3051 3057 3062 3067 3072 3076 3080 3084 3087 3090 3093 3097 3099 3101 3104 3106 3108 3109 3110 3120 3127 3128 3132 3135 3137 3141 3144 3146 3149 3151 3154 3156 3159 3161 3163 3165 3166 3168 3171 3172 3172 3174 3176 3177 3179 3180 3182 3182 3183 3184 3184 3185 3186 3187 3188 3189 3190 3190 3190 3190 3190 3190 3189 3192 3196 3197 3197 3197 3198 3198 3198 3199 3199 3200 3200 3201 3202
3010 3013 3016 3019 3022 3025 3028 3030 3032 3037 3043 3048 3053 3059 3064 3069 3073 3077 3082 3085 3088 3091 3094 3096 3099 3101 3104 3106 3106 3110 3119 3125 3126 3130 3133 3135 3138 3141 3144 3146 3148 3151 3154 3157 3159 3161 3163 3164 3166 3168 3169 3170 3173 3174 3175 3177 3179 3180 3181 3182 3182 3183 3184 3184 3186 3187 3187 3188 3189 3189 3187 3187 3187 3187 3191 3195 3195 3195 3196 3196 3197 3197 3198 3198 3198 3199 3199 3200
3007 3011 3014 3017 3020 3023 3025 3028 3030 3033 3039 3045 3050 3056 3061 3066 3071 3075 3079 3082 3086 3090 3092 3094 3097 3099 3101 3102 3104 3109 3117 3122 3124 3127 3130 3133 3136 3138 3141 3143 3145 3149 3151 3155 3157 3159 3161 3162 3164 3165 3166 3168 3171 3172 3173 3175 3177 3179 3180 3180 3181 3182 3182 3182 3184 3184 3185 3185 3186 3188 3185 3183 3185 3188 3191 3193 3193 3193 3194 3195 3196 3196 3196 3196 3197 3197 3198 3198
3005 3008 3011 3014 3017 3020 3023 3026 3028 3030 3036 3042 3047 3052 3057 3062 3067 3071 3076 3080 3083 3087 3090 3093 3094 3096 3098 3099 3101 3107 3114 3119 3121 3124 3127 3130 3133 3135 3138 3140 3143 3146 3149 3152 3154 3156 3158 3160 3162 3162 3164 3166 3169 3170 3172 3174 3175 3176 3178 3179 3180 3181 3180 3180 3182 3182 3182 3183 3183 3186 3182 3179 3183 3187 3189 3190 3191 3191 3192 3193 3194 3194 3195 3195 3195 3195 3196 3196
3002 3005 3008 3011 3014 3018 3021 3024 3026 3028 3033 3039 3044 3049 3054 3059 3064 3069 3073 3077 3081 3085 3088 3090 3091 3093 3095 3096 3098 3104 3111 3115 3117 3120 3124 3128 3130 3133 3135 3138 3141 3143 3146 3149 3150 3153 3155 3157 3158 3159 3161 3164 3167 3169 3170 3172 3173 3174 3176 3177 3178 3179 3177 3178 3180 3180 3180 3180 3180 3182 3178 3176 3181 3185 3186 3188 3189 3189 3190 3191 3191 3192 3192 3193 3193 3193 3194 3194
2999 3002 3005 3008 3012 3015 3018 3021 3025 3027 3030 3036 3042 3046 3051 3055 3060 3066 3069 3074 3079 3081 3083 3085 3086 3089 3091 3091 3094 3099 3106 3110 3113 3117 3121 3124 3128 3131 3134 3136 3138 3141 3143 3146 3148 3150 3152 3154 3155 3157 3159 3162 3164 3166 3168 3170 3170 3172 3174 3174 3175 3177 3176 3177 3178 3177 3178 3177 3177 3178 3176 3174 3178 3182 3183 3185 3186 3187 3187 3188 3189 3189 3190 3191 3191 3191 3192 3192
2997 3000 3003 3006 3009 3012 3016 3019 3022 3025 3028 3032 3038 3044 3048 3051 3057 3062 3066 3072 3076 3078 3081 3082 3085 3088 3088 3087 3088 3094 3100 3106 3110 3114 3118 3122 3125 3128 3131 3133 3136 3138 3141 3143 3145 3147 3149 3151 3152 3155 3157 3160 3162 3164 3166 3166 3167 3169 3172 3173 3174 3174 3175 3175 3175 3175 3176 3176 3175 3175 3174 3173 3175 3178 3181 3182 3183 3183 3184 3185 3186 3187 3187 3188 3188 3189 3189 3190
2994 2997 3000 3003 3006 3010 3013 3016 3020 3023 3025 3029 3034 3040 3044 3047 3052 3057 3062 3069 3073 3075 3077 3079 3081 3082 3080 3080 3084 3090 3097 3103 3107 3111 3115 3119 3122 3125 3128 3131 3134 3136 3139 3141 3142 3144 3146 3148 3151 3153 3154 3156 3158 3160 3161 3162 3164 3168 3169 3170 3171 3172 3172 3173 3173 3173 3174 3174 3173 3172 3171 3172 3173 3175 3177 3179 3179 3179 3180 3181 3182 3183 3184 3185 3186 3186 3187 3188
2992 2994 2997 3000 3004 3007 3010 3014 3017 3020 3022 3025 3029 3035 3039 3043 3048 3053 3058 3063 3065 3063 3062 3065 3068 3070 3072 3076 3082 3089 3096 3101 3104 3108 3112 3115 3119 3122 3125 3129 3132 3134 3135 3136 3138 3140 3142 3145 3148 3148 3148 3151 3154 3157 3159 3161 3164 3166 3168 3169 3170 3170 3171 3171 3172 3172 3172 3172 3172 3171 3170 3170 3171 3172 3173 3175 3176 3175 3176 3176 3177 3178 3180 3181 3183 3184 3185 3185
2989 2992 2995 2998 3001 3004 3008 3011 3014 3017 3020 3022 3026 3030 3034 3038 3043 3048 3052 3056 3058 3058 3056 3057 3061 3066 3071 3075 3078 3085 3092 3098 3101 3104 3108 3112 3116 3119 3122 3125 3128 3130 3132 3133 3136 3138 3141 3142 3141 3141 3144 3148 3152 3156 3158 3160 3163 3165 3167 3168 3169 3169 3169 3170 3170 3170 3171 3170 3169 3169 3168 3167 3168 3169 3170 3171 3171 3171 3171 3172 3173 3174 3176 3177 3179 3180 3182 3183
2986 2990 2992 2995 2999 3002 3005 3008 3012 3014 3017 3019 3022 3026 3029 3034 3039 3044 3049 3051 3054 3058 3058 3057 3060 3065 3069 3072 3076 3080 3085 3092 3098 3101 3104 3109 3113 3116 3118 3121 3122 3124 3128 3131 3134 3137 3139 3137 3136 3140 3145 3149 3153 3155 3157 3159 3161 3164 3165 3166 3167 3167 3167 3168 3169 3168 3169 3169 3167 3167 3165 3164 3164 3165 3166 3166 3166 3166 3167 3168 3169 3171 3172 3173 3175 3176 3178 3180
2984 2987 2990 2993 2996 2999 3002 3005 3009 3011 3013 3015 3019 3022 3027 3034 3039 3045 3049 3049 3050 3054 3054 3055 3059 3061 3066 3071 3075 3078 3081 3085 3091 3096 3100 3105 3109 3112 3114 3117 3118 3121 3124 3127 3131 3134 3134 3133 3135 3140 3145 3149 3152 3154 3156 3158 3160 3162 3163 3165 3165 3165 3166 3167 3167 3166 3167 3166 3165 3164 3162 3160 3161 3161 3162 3162 3161 3161 3163 3165 3166 3168 3169 3169 3171 3172 3174 3176
2981 2984 2988 2990 2993 2996 2999 3002 3005 3008 3010 3012 3016 3020 3027 3033 3038 3042 3046 3046 3046 3048 3048 3049 3052 3055 3060 3065 3071 3076 3078 3080 3083 3088 3095 3100 3104 3108 3111 3113 3115 3119 3121 3123 3126 3128 3129 3130 3134 3140 3145 3148 3150 3151 3154 3155 3157 3159 3160 3162 3162 3163 3166 3166 3165 3164 3165 3164 3163 3161 3157 3155 3157 3157 3157 3159 3158 3158 3159 3160 3162 3163 3165 3166 3168 3169 3170 3171
2977 2981 2984 2987 2991 2993 2996 2999 3001 3005 3008 3011 3015 3021 3025 3030 3035 3039 3043 3044 3041 3042 3045 3046 3049 3051 3054 3061 3069 3072 3075 3079 3083 3084 3089 3094 3098 3104 3108 3111 3113 3116 3119 3121 3125 3127 3127 3129 3134 3139 3143 3145 3147 3148 3150 3152 3154 3155 3157 3159 3160 3161 3164 3165 3164 3163 3163 3162 3160 3160 3155 3149 3152 3154 3153 3155 3155 3154 3155 3156 3157 3159 3161 3163 3164 3165 3166 3167
2975 2978 2981 2984 2987 2989 2992 2995 2998 3003 3007 3010 3014 3019 3023 3028 3034 3038 3042 3042 3037 3038 3042 3042 3044 3047 3052 3059 3065 3068 3073 3079 3083 3084 3087 3091 3094 3099 3104 3109 3111 3113 3117 3121 3126 3128 3128 3131 3135 3138 3140 3143 3145 3146 3147 3150 3152 3153 3154 3157 3159 3161 3163 3164 3164 3163 3163 3161 3158 3160 3156 3146 3147 3151 3150 3152 3152 3151 3152 3152 3153 3155 3157 3159 3159 3161 3164 3165
2971 2974 2978 2981 2983 2986 2989 2991 2997 3002 3004 3007 3013 3017 3023 3028 3032 3036 3040 3040 3033 3031 3035 3036 3036 3040 3047 3054 3058 3065 3071 3073 3079 3084 3087 3091 3094 3096 3101 3106 3109 3112 3116 3121 3126 3127 3127 3131 3134 3137 3138 3140 3143 3144 3146 3148 3151 3152 3152 3155 3159 3160 3161 3161 3162 3163 3162 3160 3157 3159 3158 3147 3142 3145 3147 3148 3148 3148 3150 3149 3149 3152 3153 3154 3155 3158 3160 3162
2968 2971 2974 2976 2980 2983 2986 2990 2995 2998 3001 3007 3012 3017 3023 3027 3030 3034 3040 3039 3028 3024 3029 3031 3032 3036 3042 3047 3053 3059 3062 3065 3074 3080 3084 3089 3092 3096 3099 3101 3105 3109 3114 3120 3123 3122 3123 3128 3132 3134 3136 3139 3139 3141 3143 3147 3150 3150 3150 3154 3157 3158 3160 3160 3161 3162 3160 3158 3156 3156 3158 3150 3138 3138 3143 3145 3145 3144 3145 3146 3146 3148 3150 3151 3152 3154 3157 3159
2965 2968 2971 2973 2976 2979 2984 2988 2990 2995 3002 3007 3012 3017 3021 3024 3028 3032 3037 3034 3021 3017 3022 3026 3031 3036 3039 3043 3049 3052 3056 3062 3068 3072 3079 3086 3088 3093 3097 3099 3101 3106 3111 3116 3117 3118 3121 3125 3129 3131 3134 3136 3136 3138 3141 3146 3148 3147 3149 3153 3156 3157 3159 3159 3160 3160 3159 3158 3155 3153 3157 3152 3135 3133 3140 3140 3140 3141 3141 3143 3144 3145 3147 3148 3149 3150 3152 3155
2961 2965 2967 2970 2972 2976 2981 2983 2987 2996 3001 3003 3010 3014 3017 3022 3026 3030 3032 3025 3014 3013 3018 3022 3029 3032 3033 3038 3044 3047 3055 3061 3064 3068 3076 3081 3084 3088 3092 3097 3101 3105 3111 3114 3116 3117 3120 3124 3128 3131 3133 3133 3134 3137 3141 3145 3145 3146 3149 3152 3155 3157 3157 3159 3159 3159 3160 3157 3151 3151 3156 3152 3134 3128 3137 3137 3135 3137 3137 3140 3142 3143 3144 3143 3144 3145 3146 3149
2957 2961 2964 2966 2969 2973 2976 2979 2987 2995 2996 2999 3006 3010 3014 3018 3020 3023 3022 3016 3011 3012 3015 3017 3021 3025 3027 3032 3036 3042 3050 3056 3061 3068 3073 3076 3081 3086 3090 3096 3101 3105 3109 3113 3116 3117 3120 3124 3128 3129 3130 3130 3132 3136 3140 3144 3144 3146 3149 3151 3155 3156 3156 3158 3157 3159 3161 3152 3148 3149 3152 3154 3140 3125 3131 3134 3130 3132 3134 3137 3139 3139 3140 3140 3140 3140 3141 3143
2954 2957 2960 2963 2966 2969 2972 2977 2986 2990 2991 2996 3003 3006 3009 3012 3014 3014 3010 3010 3012 3012 3013 3015 3015 3020 3024 3025 3029 3038 3046 3051 3057 3063 3066 3071 3077 3081 3086 3092 3097 3104 3109 3111 3114 3117 3119 3123 3123 3124 3125 3128 3132 3136 3138 3141 3142 3143 3146 3149 3153 3155 3156 3158 3158 3160 3158 3148 3145 3147 3148 3153 3142 3124 3125 3130 3128 3130 3132 3134 3135 3135 3136 3136 3137 3136 3136 3138
2949 2952 2955 2959 2962 2965 2969 2977 2982 2984 2988 2993 2998 3000 3002 3005 3004 3002 3004 3010 3012 3006 3009 3014 3013 3015 3021 3024 3027 3031 3037 3044 3051 3056 3060 3066 3070 3072 3076 3079 3084 3093 3101 3106 3109 3112 3115 3117 3118 3120 3122 3125 3129 3133 3136 3137 3139 3140 3143 3146 3151 3155 3157 3157 3156 3155 3151 3146 3145 3145 3147 3146 3131 3121 3124 3126 3127 3129 3129 3130 3131 3131 3132 3133 3133 3133 3133 3134
2945 2948 2951 2955 2957 2961 2968 2973 2975 2979 2985 2989 2992 2995 2996 2995 2990 2993 3003 3006 3003 3001 3007 3012 3013 3014 3018 3022 3025 3028 3034 3041 3046 3052 3057 3061 3065 3069 3073 3075 3077 3082 3087 3095 3102 3106 3112 3116 3116 3117 3118 3120 3124 3127 3129 3130 3133 3135 3138 3142 3145 3149 3152 3151 3150 3149 3147 3144 3143 3145 3148 3139 3124 3121 3124 3124 3126 3127 3126 3128 3128 3128 3129 3130 3130 3131 3131 3131
2940 2943 2945 2949 2953 2957 2964 2967 2969 2976 2982 2983 2987 2988 2986 2983 2983 2992 2999 2997 2998 3004 3006 3008 3012 3014 3014 3016 3019 3023 3031 3038 3043 3049 3054 3058 3061 3065 3069 3073 3078 3082 3085 3092 3097 3100 3106 3109 3109 3111 3113 3115 3119 3124 3126 3127 3130 3133 3136 3139 3140 3141 3143 3142 3143 3143 3142 3142 3143 3145 3144 3131 3122 3122 3122 3121 3124 3124 3124 3126 3126 3126 3127 3128 3128 3128 3128 3128
2934 2937 2940 2944 2948 2953 2959 2962 2966 2973 2975 2976 2980 2978 2972 2974 2981 2987 2989 2992 2999 3003 3005 3007 3010 3012 3013 3015 3016 3018 3023 3031 3039 3045 3048 3051 3055 3058 3061 3066 3072 3078 3082 3087 3092 3096 3100 3100 3101 3105 3109 3112 3116 3120 3124 3128 3132 3133 3136 3138 3138 3137 3139 3139 3139 3139 3140 3141 3140 3138 3132 3121 3119 3120 3120 3122 3123 3123 3123 3124 3124 3126 3125 3126 3126 3126 3126 3126
2928 2931 2934 2937 2941 2949 2955 2958 2962 2965 2967 2971 2971 2967 2965 2970 2977 2981 2985 2991 2995 2998 3004 3007 3004 3006 3010 3012 3014 3017 3020 3026 3033 3039 3044 3048 3051 3053 3055 3059 3065 3070 3073 3077 3083 3090 3096 3098 3099 3103 3108 3112 3115 3118 3122 3126 3129 3132 3133 3134 3134 3136 3137 3138 3139 3139 3141 3140 3134 3129 3124 3119 3120 3119 3117 3120 3120 3121 3122 3121 3122 3124 3123 3124 3124 3123 3124 3124
2922 2926 2927 2929 2936 2944 2950 2954 2957 2958 2962 2965 2961 2959 2964 2969 2973 2979 2984 2988 2992 2997 3002 3000 2996 2998 3003 3008 3011 3013 3018 3024 3029 3032 3039 3046 3049 3051 3055 3059 3063 3067 3070 3074 3079 3083 3088 3094 3098 3101 3105 3109 3113 3117 3121 3124 3126 3127 3128 3128 3131 3136 3137 3137 3139 3139 3140 3138 3130 3125 3121 3120 3120 3117 3114 3117 3118 3118 3119 3119 3121 3122 3122 3122 3122 3122 3122 3122
2917 2919 2918 2921 2931 2939 2945 2949 2950 2952 2957 2958 2955 2957 2961 2964 2969 2976 2981 2984 2990 2994 2996 2995 2994 2994 2996 3001 3007 3011 3014 3020 3025 3029 3035 3041 3045 3047 3051 3057 3061 3066 3070 3074 3079 3081 3084 3092 3098 3100 3102 3107 3110 3115 3118 3120 3122 3123 3123 3125 3130 3133 3133 3135 3137 3136 3136 3135 3128 3121 3119 3116 3114 3112 3112 3115 3116 3116 3117 3118 3119 3119 3120 3120 3120 3121 3121 3121
2912 2911 2908 2916 2928 2934 2939 2943 2944 2947 2948 2946 2948 2951 2954 2958 2965 2971 2976 2981 2986 2989 2991 2992 2992 2992 2992 2993 2998 3006 3012 3015 3020 3026 3030 3034 3039 3043 3047 3051 3057 3063 3068 3072 3076 3079 3082 3089 3097 3099 3102 3106 3108 3109 3111 3112 3116 3121 3123 3125 3127 3128 3129 3130 3131 3129 3130 3130 3126 3120 3116 3110 3105 3107 3110 3113 3114 3114 3115 3115 3116 3117 3118 3118 3118 3119 3119 3119
2906 2904 2900 2911 2924 2928 2933 2937 2936 2937 2935 2936 2943 2947 2949 2954 2959 2965 2970 2976 2981 2983 2986 2989 2989 2989 2990 2990 2992 2998 3007 3013 3015 3019 3024 3029 3034 3038 3043 3048 3052 3058 3065 3070 3074 3078 3081 3084 3090 3097 3101 3103 3102 3101 3102 3104 3109 3113 3116 3119 3121 3123 3126 3127 3126 3126 3126 3125 3124 3122 3114 3104 3101 3105 3108 3110 3111 3111 3112 3113 3114 3115 3115 3115 3116 3116 3117 3118
2901 2897 2892 2904 2917 2922 2928 2927 2923 2925 2927 2932 2938 2941 2943 2947 2952 2959 2964 2970 2976 2980 2983 2986 2988 2987 2988 2989 2990 2993 3001 3009 3013 3015 3019 3023 3026 3030 3036 3042 3047 3052 3059 3066 3069 3073 3077 3079 3083 3090 3093 3095 3094 3095 3100 3105 3107 3109 3111 3113 3114 3117 3120 3122 3122 3121 3123 3123 3122 3122 3114 3100 3098 3104 3105 3107 3108 3108 3110 3111 3112 3112 3112 3113 3114 3114 3115 3115
2895 2887 2883 2898 2909 2914 2918 2915 2913 2918 2919 2921 2927 2934 2939 2943 2946 2951 2957 2964 2972 2976 2979 2982 2983 2987 2987 2987 2988 2992 2996 3002 3008 3012 3015 3017 3018 3022 3028 3035 3042 3049 3054 3059 3064 3068 3073 3076 3080 3085 3088 3091 3094 3097 3102 3105 3108 3110 3110 3110 3113 3115 3115 3116 3116 3115 3120 3122 3120 3123 3117 3098 3093 3100 3102 3104 3106 3105 3107 3109 3109 3110 3110 3111 3112 3112 3113 3112
2884 2875 2875 2891 2902 2905 2908 2904 2904 2909 2909 2915 2926 2931 2934 2937 2939 2944 2950 2958 2964 2968 2973 2976 2978 2983 2986 2987 2989 2991 2994 2998 3003 3006 3010 3015 3017 3021 3026 3031 3038 3047 3051 3054 3060 3065 3071 3074 3077 3084 3090 3092 3094 3098 3101 3104 3106 3106 3105 3106 3109 3111 3111 3114 3114 3114 3118 3118 3117 3122 3116 3096 3089 3097 3099 3101 3103 3104 3105 3107 3107 3107 3108 3108 3109 3109 3110 3109
2875 2868 2868 2882 2893 2895 2894 2892 2896 2900 2904 2912 2920 2923 2927 2931 2931 2936 2942 2949 2956 2963 2968 2971 2974 2979 2983 2986 2987 2989 2992 2998 3003 3007 3010 3014 3017 3021 3026 3030 3034 3041 3046 3049 3053 3058 3064 3067 3070 3079 3091 3097 3099 3100 3100 3098 3098 3097 3099 3103 3105 3106 3110 3113 3113 3114 3114 3109 3109 3113 3105 3090 3088 3095 3096 3098 3101 3101 3102 3103 3104 3105 3106 3106 3106 3106 3106 3106
2870 2863 2859 2870 2882 2883 2881 2883 2890 2893 2896 2903 2908 2912 2920 2924 2925 2930 2936 2945 2954 2961 2965 2968 2973 2978 2981 2984 2986 2988 2991 2992 2998 3004 3009 3012 3016 3019 3024 3029 3033 3037 3042 3047 3051 3054 3058 3061 3060 3062 3070 3077 3081 3081 3077 3076 3083 3090 3094 3098 3101 3104 3107 3107 3109 3111 3105 3099 3101 3101 3093 3087 3089 3093 3094 3096 3098 3098 3099 3100 3101 3102 3103 3103 3103 3103 3104 3104
2865 2859 2854 2861 2870 2871 2870 2874 2880 2881 2885 2893 2900 2904 2909 2914 2922 2929 2935 2941 2949 2957 2963 2967 2971 2975 2977 2979 2982 2987 2991 2992 2994 2998 3003 3008 3011 3015 3022 3028 3033 3038 3041 3046 3051 3055 3058 3059 3058 3056 3054 3053 3056 3058 3059 3065 3077 3084 3087 3092 3096 3099 3101 3103 3105 3101 3094 3095 3095 3089 3085 3087 3088 3090 3093 3094 3095 3096 3097 3099 3100 3100 3100 3101 3101 3101 3101 3101
2858 2852 2849 2855 2859 2858 2858 2863 2866 2870 2877 2883 2889 2896 2901 2907 2915 2925 2932 2938 2943 2953 2961 2964 2965 2966 2968 2972 2977 2983 2988 2992 2994 2997 3001 3006 3009 3014 3022 3028 3033 3038 3041 3045 3049 3053 3056 3057 3059 3061 3060 3058 3058 3060 3064 3070 3076 3078 3081 3087 3090 3093 3097 3098 3094 3087 3088 3093 3087 3078 3082 3086 3083 3086 3091 3091 3093 3095 3096 3098 3099 3099 3100 3099 3099 3099 3099 3098
2851 2846 2845 2851 2852 2846 2845 2850 2856 2863 2872 2878 2882 2889 2895 2900 2906 2913 2923 2932 2940 2948 2954 2956 2958 2960 2962 2966 2972 2979 2985 2991 2995 2997 2999 3002 3006 3013 3021 3028 3034 3036 3039 3044 3048 3051 3055 3056 3057 3060 3063 3063 3063 3066 3069 3072 3075 3077 3080 3083 3084 3088 3090 3087 3081 3079 3083 3085 3076 3073 3080 3081 3079 3084 3088 3089 3091 3093 3094 3097 3097 3097 3097 3097 3096 3096 3095 3095
2845 2841 2839 2842 2844 2838 2837 2845 2853 2860 2867 2873 2879 2883 2886 2892 2900 2907 2914 2924 2933 2941 2946 2949 2953 2958 2963 2965 2967 2971 2976 2981 2988 2992 2994 2998 3003 3008 3014 3021 3027 3033 3038 3041 3045 3050 3054 3055 3057 3060 3061 3062 3064 3066 3068 3071 3074 3076 3077 3079 3081 3082 3079 3074 3071 3074 3077 3076 3072 3074 3077 3075 3076 3082 3085 3087 3090 3090 3091 3093 3093 3093 3094 3093 3093 3092 3091 3091
2835 2833 2832 2835 2835 2832 2833 2838 2846 2855 2863 2869 2874 2879 2883 2887 2895 2903 2909 2914 2922 2932 2940 2946 2951 2956 2961 2964 2966 2967 2968 2971 2975 2978 2982 2988 2994 2999 3003 3007 3012 3021 3031 3036 3040 3045 3050 3052 3054 3057 3059 3061 3062 3064 3066 3070 3071 3073 3075 3078 3077 3074 3070 3066 3067 3072 3075 3071 3070 3075 3074 3068 3070 3077 3081 3084 3085 3086 3087 3088 3089 3090 3090 3090 3089 3088 3087 3087
2826 2826 2829 2831 2828 2826 2828 2833 2838 2846 2855 2861 2866 2873 2880 2884 2889 2898 2907 2913 2920 2927 2935 2942 2950 2955 2958 2962 2963 2965 2969 2972 2973 2972 2974 2977 2982 2987 2992 2997 3003 3010 3019 3027 3033 3038 3043 3047 3049 3053 3057 3059 3059 3062 3066 3067 3070 3074 3074 3069 3063 3061 3061 3062 3065 3069 3068 3065 3068 3074 3068 3060 3063 3073 3077 3078 3080 3083 3084 3084 3086 3086 3085 3085 3084 3084 3084 3084
2819 2819 2823 2826 2824 2821 2823 2830 2836 2840 2844 2850 2858 2866 2874 2881 2888 2894 2902 2913 2922 2928 2934 2941 2948 2952 2953 2956 2959 2964 2971 2975 2977 2979 2982 2984 2986 2989 2991 2998 3003 3006 3011 3019 3027 3033 3038 3041 3044 3049 3053 3055 3058 3062 3064 3067 3072 3070 3058 3049 3049 3053 3058 3061 3063 3062 3061 3062 3066 3065 3058 3057 3063 3069 3072 3075 3078 3080 3080 3081 3082 3081 3081 3081 3081 3080 3080 3080